AirNav   Everest Fuels
 
 1477 users online  

7KY1 Nicholas County Hospital Heliport
Carlisle, Kentucky, USA

GOING TO CARLISLE?


FAA INFORMATION EFFECTIVE 26 JANUARY 2023

Location

FAA Identifier: 7KY1
Lat/Long: 38-18-58.0500N 084-03-36.3300W
38-18.967500N 084-03.605500W
38.3161250,-84.0600917
(estimated)
Elevation: 830 ft. / 253 m (estimated)
From city: 2 miles W of CARLISLE, KY
Time zone: UTC -5 (UTC -4 during Daylight Saving Time)
Zip code: 40311

Heliport Operations

Heliport use: Private use. Permission required prior to landing
Activation date: 06/2010
Control tower: no
ARTCC: INDIANAPOLIS CENTER
FSS: LOUISVILLE FLIGHT SERVICE STATION
Attendance: CONTINUOUS
Wind indicator: yes
Segmented circle: no

Heliport Communications

WX AWOS-3 at IOB (16 nm S): 120.675 (859-498-7001)
WX AWOS-3 at 27K (18 nm W): 119.975 (502-867-1564)

Nearby radio navigation aids

VOR radial/distance  VOR name  Freq  Var
FLMr154/23.2FALMOUTH VOR/DME117.0004W
HYKr043/28.6LEXINGTON VOR/DME112.6000E

 
NDB name  Hdg/Dist  Freq  Var  ID
SECO001/33.539303WXYC -..- -.-- -.-.

Heliport Services

Runway Information

Helipad H1

Dimensions: 40 x 40 ft. / 12 x 12 m
Surface: concrete
Latitude: 38-18.967500N
Longitude: 084-03.605500W
Elevation: 830.0 ft.
Traffic pattern: leftleft

Heliport Ownership and Management from official FAA records

Ownership: Privately-owned
Owner: NICHOLAS COUNTY HOSPITAL
2323 CONCRETE ROAD
CARLISLE, KY 40311-2054
Phone (859) 289-3725
Manager: ROSCOE HIGGINBOTHAM, NCH. CTY JDG E
125 E. MAIN STREET
CARLISLE, KY 40311-2054
Phone 859-289-3725

Additional Remarks

OWNER DESIRES ARPT NOT BE CHARTED.
FOR CD CTC LEXINGTON APCH AT 859-514-7890.

Instrument Procedures

There are no published instrument procedures at 7KY1.

Some nearby airports with instrument procedures:

0I8 - Cynthiana-Harrison County Airport (11 nm W)
KIOB - Mount Sterling/Montgomery County Airport (16 nm S)
27K - Georgetown-Scott County Regional Airport (18 nm W)
KFGX - Fleming-Mason Airport (20 nm NE)
KSYM - Morehead-Rowan County Clyde A Thomas Regional Airport (23 nm E)
 
Loc | Ops | Rwys | IFR | FBO | Links
Com | Nav | Svcs | Stats | Notes
Aerial photo
No photo
 
Sectional chart

 
Airport distance calculator
Flying to Nicholas County Hospital Heliport? Find the distance to fly.

From to 7KY1

Sunrise and sunset
Times for 07-Feb-2023
 Local
(UTC-5)
 Zulu
(UTC)
Morning civil twilight07:0912:09
Sunrise07:3712:37
Sunset18:0423:04
Evening civil twilight18:3223:32

Current date and time
Zulu (UTC)  07-Feb-2023 22:53:41
Local (UTC-5)  07-Feb-2023 17:53:41
 
METAR
KIOB 
16nm S 
072235Z AUTO 25011KT 10SM CLR 16/06 A3015 RMK AO2 PWINO
K27K 
18nm W 
072235Z AUTO 23013KT 10SM SCT047 SCT055 BKN070 16/06 A3012 RMK AO1
KFGX 
20nm NE 
072235Z AUTO 26010KT 10SM OVC050 16/06 A3014 RMK AO2 T01560060
KSYM 
23nm E 
072235Z AUTO 24010G15KT 10SM CLR 17/04 A3014 RMK AO2
KK62 
28nm NW 
072235Z AUTO 28006KT 10SM -RA BKN055 OVC065 11/08 A3013 RMK AO2
KLEX 
31nm SW 
072154Z 23012G21KT 10SM BKN048 OVC060 18/07 A3013 RMK AO2 PK WND 24026/2109 SLP202 T01780067
TAF
KSYM 
23nm E 
071724Z 0718/0818 23010G18KT P6SM BKN120 FM080300 27008KT P6SM VCSH BKN030 FM080500 29006KT P6SM VCSH BKN015 FM081000 VRB04KT P6SM BKN025
NOTAMs
Click for the latest NOTAMs
NOTAMs are issued by the DoD/FAA and will open in a separate window not controlled by AirNav.

 

 
 

Would you like to see your business listed on this page?

 If your business provides an interesting product or service to pilots, flight crews, aircraft, or users of the Nicholas County Hospital Heliport, you should consider listing it here.  To start the listing process, click on the button below
 
Add a business
 

Other Pages about Nicholas County Hospital Heliport

Update a link
 
Copyright © AirNav, LLC. All rights reserved. Privacy Policy  Contact